Regional Weather Roundup
Issued by NWS

Home | Current Version | Previous Version | Text Only | Print | Product List | Glossary On
Versions: 1 2 3 4 5 6 7 8 9 10 11 12 13 14 15 16 17 18 19 20 21 22 23 24 25 26 27 28 29 30 31 32 33 34 35 36 37 38 39 40 41 42 43 44 45 46 47 48 49 50
000
ASUS43 KBIS 191010
RWRND

NORTH DAKOTA REGIONAL WEATHER ROUNDUP
NATIONAL WEATHER SERVICE BISMARCK ND
400 AM CST FRI DEC 19 2014

NOTE: "FAIR" INDICATES FEW OR NO CLOUDS BELOW 12,000 FEET WITH NO
SIGNIFICANT WEATHER AND/OR OBSTRUCTIONS TO VISIBILITY.


NDZ001>003-009>011-017-191100-
NORTHWEST NORTH DAKOTA

CITY           SKY/WX    TMP DP  RH WIND       PRES   REMARKS
WILLISTON      FOG       24  22  91 CALM      29.92S VSB 1/4
MINOT          FOG       27  25  92 SE3       29.93F VSB 1
MINOT AFB      FRZ DRZL  25  25 100 SE3       29.94F FOG
$$

NDZ018>021-031>035-040>046-191100-
SOUTHWEST NORTH DAKOTA

CITY           SKY/WX    TMP DP  RH WIND       PRES   REMARKS
BISMARCK       MOCLDY    19  15  84 E5        29.98S WCI  12
DICKINSON      CLOUDY    30  24  78 W8        29.89S
GARRISON         N/A     23  21  92 SE3       29.93S
HETTINGER ARPT CLOUDY    28  23  81 W8        29.94F WCI  20
$$

NDZ004>008-012>016-024-026-027-054-191100-
NORTHEAST NORTH DAKOTA

CITY           SKY/WX    TMP DP  RH WIND       PRES   REMARKS
GRAND FORKS    CLOUDY    21  18  88 S12       30.10F WCI   9
GRND FRKS AFB  CLOUDY    21  21  99 S9        30.09F WCI  11
DEVILS LAKE    CLOUDY    25  18  74 S10       29.98F WCI  15
$$

NDZ022-023-025-028>030-036>039-047>053-191100-
SOUTHEAST NORTH DAKOTA

CITY           SKY/WX    TMP DP  RH WIND       PRES   REMARKS
FARGO          CLOUDY    23  20  88 SE14      30.12F FOG     WCI  11
JAMESTOWN      CLOUDY    26  24  92 S12       30.02F FOG     WCI  16
$$



USA.gov is the U.S. government's official web portal to all federal, state and local government web resources and services.